Year,Month,Day,Hour,Minute,Value (Times are PST for temperature in C)
2015,08,19,00,00,18.30
2015,08,19,00,01,18.30
2015,08,19,00,02,18.20
2015,08,19,00,03,18.20
2015,08,19,00,04,18.20
2015,08,19,00,05,18.20
2015,08,19,00,06,18.10
2015,08,19,00,07,18.10
2015,08,19,00,08,18.10
2015,08,19,00,09,18.10
2015,08,19,00,10,18.10
2015,08,19,00,11,18.00
2015,08,19,00,12,18.00
2015,08,19,00,13,18.00
2015,08,19,00,14,18.00
2015,08,19,00,15,17.90
2015,08,19,00,16,17.90
2015,08,19,00,17,17.90
2015,08,19,00,18,17.90
2015,08,19,00,19,17.90
2015,08,19,00,20,17.80
2015,08,19,00,21,17.80
2015,08,19,00,22,17.80
2015,08,19,00,23,17.80
2015,08,19,00,24,17.80
2015,08,19,00,25,17.80
2015,08,19,00,26,17.80
2015,08,19,00,27,17.80
2015,08,19,00,28,17.70
2015,08,19,00,29,17.70
2015,08,19,00,30,17.70
2015,08,19,00,31,17.70
2015,08,19,00,32,17.70
2015,08,19,00,33,17.70
2015,08,19,00,34,17.70
2015,08,19,00,35,17.70
2015,08,19,00,36,17.70
2015,08,19,00,37,17.60
2015,08,19,00,38,17.60
2015,08,19,00,39,17.60
2015,08,19,00,40,17.60
2015,08,19,00,41,17.60
2015,08,19,00,42,17.50
2015,08,19,00,43,17.50
2015,08,19,00,44,17.50
2015,08,19,00,45,17.40
2015,08,19,00,46,17.40
2015,08,19,00,47,17.40
2015,08,19,00,48,17.40
2015,08,19,00,49,17.40
2015,08,19,00,50,17.40
2015,08,19,00,51,17.30
2015,08,19,00,52,17.30
2015,08,19,00,53,17.30
2015,08,19,00,54,17.30
2015,08,19,00,55,17.30
2015,08,19,00,56,17.30
2015,08,19,00,57,17.30
2015,08,19,00,58,17.20
2015,08,19,00,59,17.20
2015,08,19,01,00,17.20
2015,08,19,01,01,17.20
2015,08,19,01,02,17.20
2015,08,19,01,03,17.10
2015,08,19,01,04,17.10
2015,08,19,01,05,17.10
2015,08,19,01,06,17.10
2015,08,19,01,07,17.10
2015,08,19,01,08,17.00
2015,08,19,01,09,17.00
2015,08,19,01,10,17.00
2015,08,19,01,11,16.90
2015,08,19,01,12,16.90
2015,08,19,01,13,16.90
2015,08,19,01,14,16.90
2015,08,19,01,15,16.90
2015,08,19,01,16,16.80
2015,08,19,01,17,16.80
2015,08,19,01,18,16.80
2015,08,19,01,19,16.80
2015,08,19,01,20,16.80
2015,08,19,01,21,16.80
2015,08,19,01,22,16.80
2015,08,19,01,23,16.70
2015,08,19,01,24,16.70
2015,08,19,01,25,16.70
2015,08,19,01,26,16.70
2015,08,19,01,27,16.70
2015,08,19,01,28,16.60
2015,08,19,01,29,16.60
2015,08,19,01,30,16.60
2015,08,19,01,31,16.60
2015,08,19,01,32,16.60
2015,08,19,01,33,16.60
2015,08,19,01,34,16.50
2015,08,19,01,35,16.50
2015,08,19,01,36,16.50
2015,08,19,01,37,16.40
2015,08,19,01,38,16.40
2015,08,19,01,39,16.40
2015,08,19,01,40,16.40
2015,08,19,01,41,16.40
2015,08,19,01,42,16.40
2015,08,19,01,43,16.30
2015,08,19,01,44,16.30
2015,08,19,01,45,16.30
2015,08,19,01,46,16.30
2015,08,19,01,47,16.30
2015,08,19,01,48,16.30
2015,08,19,01,49,16.20
2015,08,19,01,50,16.20
2015,08,19,01,51,16.20
2015,08,19,01,52,16.20
2015,08,19,01,53,16.20
2015,08,19,01,54,16.20
2015,08,19,01,55,16.20
2015,08,19,01,56,16.10
2015,08,19,01,57,16.10
2015,08,19,01,58,16.10
2015,08,19,01,59,16.10
2015,08,19,02,00,16.10
2015,08,19,02,01,16.10
2015,08,19,02,02,16.10
2015,08,19,02,03,16.00
2015,08,19,02,04,16.00
2015,08,19,02,05,16.00
2015,08,19,02,06,16.00
2015,08,19,02,07,15.90
2015,08,19,02,08,15.90
2015,08,19,02,09,15.90
2015,08,19,02,10,15.90
2015,08,19,02,11,15.90
2015,08,19,02,12,15.90
2015,08,19,02,13,15.80
2015,08,19,02,14,15.80
2015,08,19,02,15,15.80
2015,08,19,02,16,15.80
2015,08,19,02,17,15.80
2015,08,19,02,18,15.80
2015,08,19,02,19,15.80
2015,08,19,02,20,15.80
2015,08,19,02,21,15.80
2015,08,19,02,22,15.80
2015,08,19,02,23,15.70
2015,08,19,02,24,15.70
2015,08,19,02,25,15.70
2015,08,19,02,26,15.70
2015,08,19,02,27,15.70
2015,08,19,02,28,15.70
2015,08,19,02,29,15.70
2015,08,19,02,30,15.70
2015,08,19,02,31,15.70
2015,08,19,02,32,15.70
2015,08,19,02,33,15.70
2015,08,19,02,34,15.70
2015,08,19,02,35,15.60
2015,08,19,02,36,15.60
2015,08,19,02,37,15.60
2015,08,19,02,38,15.60
2015,08,19,02,39,15.60
2015,08,19,02,40,15.60
2015,08,19,02,41,15.60
2015,08,19,02,42,15.60
2015,08,19,02,43,15.60
2015,08,19,02,44,15.50
2015,08,19,02,45,15.50
2015,08,19,02,46,15.50
2015,08,19,02,47,15.50
2015,08,19,02,48,15.50
2015,08,19,02,49,15.40
2015,08,19,02,50,15.40
2015,08,19,02,51,15.40
2015,08,19,02,52,15.40
2015,08,19,02,53,15.40
2015,08,19,02,54,15.40
2015,08,19,02,55,15.40
2015,08,19,02,56,15.40
2015,08,19,02,57,15.40
2015,08,19,02,58,15.40
2015,08,19,02,59,15.40
2015,08,19,03,00,15.40
2015,08,19,03,01,15.40
2015,08,19,03,02,15.40
2015,08,19,03,06,15.30
2015,08,19,03,07,15.30
2015,08,19,03,08,15.30
2015,08,19,03,09,15.30
2015,08,19,03,10,15.30
2015,08,19,03,11,15.30
2015,08,19,03,12,15.30
2015,08,19,03,13,15.20
2015,08,19,03,14,15.20
2015,08,19,03,15,15.20
2015,08,19,03,16,15.20
2015,08,19,03,17,15.20
2015,08,19,03,18,15.20
2015,08,19,03,19,15.10
2015,08,19,03,20,15.10
2015,08,19,03,21,15.10
2015,08,19,03,22,15.10
2015,08,19,03,23,15.00
2015,08,19,03,24,15.00
2015,08,19,03,25,15.00
2015,08,19,03,26,15.00
2015,08,19,03,27,15.00
2015,08,19,03,28,15.00
2015,08,19,03,29,15.00
2015,08,19,03,30,15.00
2015,08,19,03,31,15.00
2015,08,19,03,32,15.00
2015,08,19,03,33,15.00
2015,08,19,03,34,15.00
2015,08,19,03,35,15.00
2015,08,19,03,36,15.00
2015,08,19,03,37,15.00
2015,08,19,03,38,15.00
2015,08,19,03,39,15.00
2015,08,19,03,40,15.00
2015,08,19,03,41,15.00
2015,08,19,03,42,15.00
2015,08,19,03,43,15.00
2015,08,19,03,44,15.00
2015,08,19,03,45,15.00
2015,08,19,03,46,15.00
2015,08,19,03,47,15.00
2015,08,19,03,48,15.00
2015,08,19,03,49,15.00
2015,08,19,03,50,15.00
2015,08,19,03,51,15.00
2015,08,19,03,52,15.00
2015,08,19,03,53,15.00
2015,08,19,03,54,14.90
2015,08,19,03,55,14.90
2015,08,19,03,56,14.90
2015,08,19,03,57,14.90
2015,08,19,03,58,14.90
2015,08,19,03,59,14.90
2015,08,19,04,00,14.90
2015,08,19,04,01,14.90
2015,08,19,04,02,14.90
2015,08,19,04,03,14.90
2015,08,19,04,04,14.90
2015,08,19,04,05,14.90
2015,08,19,04,06,14.90
2015,08,19,04,07,14.90
2015,08,19,04,08,14.80
2015,08,19,04,09,14.80
2015,08,19,04,10,14.80
2015,08,19,04,11,14.80
2015,08,19,04,12,14.80
2015,08,19,04,13,14.80
2015,08,19,04,14,14.80
2015,08,19,04,15,14.80
2015,08,19,04,16,14.80
2015,08,19,04,17,14.80
2015,08,19,04,18,14.70
2015,08,19,04,19,14.70
2015,08,19,04,20,14.70
2015,08,19,04,21,14.70
2015,08,19,04,22,14.70
2015,08,19,04,23,14.70
2015,08,19,04,24,14.70
2015,08,19,04,25,14.70
2015,08,19,04,26,14.70
2015,08,19,04,27,14.60
2015,08,19,04,28,14.60
2015,08,19,04,29,14.60
2015,08,19,04,30,14.60
2015,08,19,04,31,14.60
2015,08,19,04,32,14.60
2015,08,19,04,33,14.60
2015,08,19,04,34,14.60
2015,08,19,04,35,14.50
2015,08,19,04,36,14.50
2015,08,19,04,37,14.50
2015,08,19,04,38,14.50
2015,08,19,04,39,14.40
2015,08,19,04,40,14.40
2015,08,19,04,41,14.40
2015,08,19,04,42,14.40
2015,08,19,04,43,14.40
2015,08,19,04,44,14.40
2015,08,19,04,45,14.40
2015,08,19,04,46,14.30
2015,08,19,04,47,14.30
2015,08,19,04,48,14.30
2015,08,19,04,49,14.30
2015,08,19,04,50,14.30
2015,08,19,04,51,14.30
2015,08,19,04,52,14.20
2015,08,19,04,53,14.20
2015,08,19,04,54,14.20
2015,08,19,04,55,14.20
2015,08,19,04,56,14.20
2015,08,19,04,57,14.20
2015,08,19,04,58,14.20
2015,08,19,04,59,14.20
2015,08,19,05,00,14.20
2015,08,19,05,01,14.10
2015,08,19,05,02,14.10
2015,08,19,05,03,14.10
2015,08,19,05,04,14.10
2015,08,19,05,05,14.10
2015,08,19,05,06,14.10
2015,08,19,05,07,14.10
2015,08,19,05,08,14.10
2015,08,19,05,09,14.00
2015,08,19,05,10,14.00
2015,08,19,05,11,14.00
2015,08,19,05,12,14.00
2015,08,19,05,13,14.00
2015,08,19,05,14,14.10
2015,08,19,05,15,14.10
2015,08,19,05,16,14.10
2015,08,19,05,17,14.10
2015,08,19,05,18,14.10
2015,08,19,05,19,14.10
2015,08,19,05,20,14.10
2015,08,19,05,21,14.10
2015,08,19,05,22,14.10
2015,08,19,05,23,14.10
2015,08,19,05,24,14.10
2015,08,19,05,25,14.10
2015,08,19,05,26,14.10
2015,08,19,05,27,14.10
2015,08,19,05,28,14.10
2015,08,19,05,29,14.10
2015,08,19,05,30,14.10
2015,08,19,05,31,14.10
2015,08,19,05,32,14.10
2015,08,19,05,33,14.10
2015,08,19,05,34,14.10
2015,08,19,05,35,14.10
2015,08,19,05,36,14.10
2015,08,19,05,37,14.00
2015,08,19,05,38,14.00
2015,08,19,05,39,14.00
2015,08,19,05,40,14.00
2015,08,19,05,41,14.00
2015,08,19,05,42,13.90
2015,08,19,05,43,13.90
2015,08,19,05,44,13.90
2015,08,19,05,45,13.90
2015,08,19,05,46,13.90
2015,08,19,05,47,13.90
2015,08,19,05,48,13.90
2015,08,19,05,49,13.80
2015,08,19,05,50,13.80
2015,08,19,05,51,13.80
2015,08,19,05,52,13.80
2015,08,19,05,53,13.80
2015,08,19,05,54,13.80
2015,08,19,05,55,13.80
2015,08,19,05,56,13.80
2015,08,19,05,57,13.80
2015,08,19,05,58,13.80
2015,08,19,05,59,13.70
2015,08,19,06,00,13.70
2015,08,19,06,01,13.70
2015,08,19,06,02,13.70
2015,08,19,06,03,13.70
2015,08,19,06,04,13.70
2015,08,19,06,05,13.70
2015,08,19,06,06,13.70
2015,08,19,06,07,13.70
2015,08,19,06,08,13.70
2015,08,19,06,09,13.70
2015,08,19,06,10,13.70
2015,08,19,06,11,13.70
2015,08,19,06,12,13.60
2015,08,19,06,13,13.60
2015,08,19,06,14,13.60
2015,08,19,06,15,13.60
2015,08,19,06,16,13.60
2015,08,19,06,17,13.60
2015,08,19,06,18,13.60
2015,08,19,06,19,13.60
2015,08,19,06,20,13.50
2015,08,19,06,21,13.50
2015,08,19,06,22,13.50
2015,08,19,06,23,13.50
2015,08,19,06,24,13.40
2015,08,19,06,25,13.40
2015,08,19,06,26,13.40
2015,08,19,06,27,13.40
2015,08,19,06,28,13.40
2015,08,19,06,29,13.40
2015,08,19,06,30,13.40
2015,08,19,06,31,13.40
2015,08,19,06,32,13.40
2015,08,19,06,33,13.40
2015,08,19,06,34,13.40
2015,08,19,06,35,13.40
2015,08,19,06,36,13.40
2015,08,19,06,37,13.40
2015,08,19,06,38,13.40
2015,08,19,06,39,13.40
2015,08,19,06,40,13.40
2015,08,19,06,41,13.40
2015,08,19,06,42,13.40
2015,08,19,06,43,13.40
2015,08,19,06,44,13.40
2015,08,19,06,45,13.40
2015,08,19,06,46,13.40
2015,08,19,06,47,13.40
2015,08,19,06,48,13.40
2015,08,19,06,49,13.40
2015,08,19,06,50,13.40
2015,08,19,06,51,13.40
2015,08,19,06,52,13.40
2015,08,19,06,53,13.40
2015,08,19,06,54,13.40
2015,08,19,06,55,13.40
2015,08,19,06,56,13.40
2015,08,19,06,57,13.30
2015,08,19,06,58,13.30
2015,08,19,06,59,13.30
2015,08,19,07,00,13.40
2015,08,19,07,01,13.30
2015,08,19,07,02,13.30
2015,08,19,07,03,13.30
2015,08,19,07,04,13.30
2015,08,19,07,05,13.30
2015,08,19,07,06,13.30
2015,08,19,07,07,13.30
2015,08,19,07,08,13.30
2015,08,19,07,09,13.30
2015,08,19,07,10,13.30
2015,08,19,07,11,13.30
2015,08,19,07,12,13.30
2015,08,19,07,13,13.30
2015,08,19,07,14,13.30
2015,08,19,07,15,13.30
2015,08,19,07,16,13.30
2015,08,19,07,17,13.40
2015,08,19,07,18,13.40
2015,08,19,07,19,13.40
2015,08,19,07,20,13.40
2015,08,19,07,21,13.40
2015,08,19,07,22,13.40
2015,08,19,07,23,13.40
2015,08,19,07,24,13.50
2015,08,19,07,25,13.50
2015,08,19,07,26,13.60
2015,08,19,07,27,13.60
2015,08,19,07,28,13.60
2015,08,19,07,29,13.60
2015,08,19,07,30,13.60
2015,08,19,07,31,13.60
2015,08,19,07,32,13.70
2015,08,19,07,33,13.70
2015,08,19,07,34,13.70
2015,08,19,07,35,13.70
2015,08,19,07,36,13.70
2015,08,19,07,37,13.80
2015,08,19,07,38,13.80
2015,08,19,07,39,13.80
2015,08,19,07,40,13.80
2015,08,19,07,41,13.80
2015,08,19,07,42,13.90
2015,08,19,07,43,13.90
2015,08,19,07,44,13.90
2015,08,19,07,45,13.90
2015,08,19,07,46,14.00
2015,08,19,07,47,14.00
2015,08,19,07,48,14.10
2015,08,19,07,49,14.10
2015,08,19,07,50,14.20
2015,08,19,07,51,14.20
2015,08,19,07,52,14.30
2015,08,19,07,53,14.30
2015,08,19,07,54,14.30
2015,08,19,07,55,14.40
2015,08,19,07,56,14.50
2015,08,19,07,57,14.50
2015,08,19,07,58,14.60
2015,08,19,07,59,14.70
2015,08,19,08,00,14.80
2015,08,19,08,01,14.80
2015,08,19,08,02,15.00
2015,08,19,08,03,15.00
2015,08,19,08,04,15.00
2015,08,19,08,05,15.10
2015,08,19,08,06,15.20
2015,08,19,08,07,15.30
2015,08,19,08,08,15.40
2015,08,19,08,09,15.50
2015,08,19,08,10,15.60
2015,08,19,08,11,15.70
2015,08,19,08,12,15.80
2015,08,19,08,13,15.90
2015,08,19,08,14,16.00
2015,08,19,08,15,16.10
2015,08,19,08,16,16.20
2015,08,19,08,17,16.30
2015,08,19,08,18,16.40
2015,08,19,08,19,16.60
2015,08,19,08,20,16.70
2015,08,19,08,21,16.70
2015,08,19,08,22,16.80
2015,08,19,08,23,17.00
2015,08,19,08,24,17.10
2015,08,19,08,25,17.20
2015,08,19,08,26,17.30
2015,08,19,08,27,17.40
2015,08,19,08,28,17.50
2015,08,19,08,29,17.60
2015,08,19,08,30,17.70
2015,08,19,08,31,17.80
2015,08,19,08,32,17.90
2015,08,19,08,33,18.00
2015,08,19,08,34,18.10
2015,08,19,08,35,18.20
2015,08,19,08,36,18.30
2015,08,19,08,37,18.40
2015,08,19,08,38,18.50
2015,08,19,08,39,18.50
2015,08,19,08,40,18.60
2015,08,19,08,41,18.70
2015,08,19,08,42,18.70
2015,08,19,08,43,18.80
2015,08,19,08,44,18.90
2015,08,19,08,45,19.00
2015,08,19,08,46,19.10
2015,08,19,08,47,19.20
2015,08,19,08,48,19.30
2015,08,19,08,49,19.40
2015,08,19,08,50,19.40
2015,08,19,08,51,19.50
2015,08,19,08,52,19.60
2015,08,19,08,53,19.80
2015,08,19,08,54,19.90
2015,08,19,08,55,20.00
2015,08,19,08,56,20.00
2015,08,19,08,57,20.10
2015,08,19,08,58,20.20
2015,08,19,08,59,20.30
2015,08,19,09,00,20.40
2015,08,19,09,01,20.50
2015,08,19,09,02,20.60
2015,08,19,09,03,20.70
2015,08,19,09,04,20.70
2015,08,19,09,05,20.80
2015,08,19,09,06,20.80
2015,08,19,09,07,20.90
2015,08,19,09,08,21.00
2015,08,19,09,09,21.00
2015,08,19,09,10,21.10
2015,08,19,09,11,21.10
2015,08,19,09,12,21.20
2015,08,19,09,13,21.20
2015,08,19,09,14,21.20
2015,08,19,09,15,21.30
2015,08,19,09,16,21.30
2015,08,19,09,17,21.30
2015,08,19,09,18,21.40
2015,08,19,09,19,21.40
2015,08,19,09,20,21.50
2015,08,19,09,21,21.50
2015,08,19,09,22,21.50
2015,08,19,09,23,21.60
2015,08,19,09,24,21.60
2015,08,19,09,25,21.60
2015,08,19,09,26,21.70
2015,08,19,09,27,21.70
2015,08,19,09,28,21.80
2015,08,19,09,29,21.80
2015,08,19,09,30,21.90
2015,08,19,09,31,21.90
2015,08,19,09,32,22.00
2015,08,19,09,33,22.10
2015,08,19,09,34,22.10
2015,08,19,09,35,22.20
2015,08,19,09,36,22.30
2015,08,19,09,37,22.30
2015,08,19,09,38,22.40
2015,08,19,09,39,22.50
2015,08,19,09,40,22.50
2015,08,19,09,41,22.60
2015,08,19,09,42,22.70
2015,08,19,09,43,22.70
2015,08,19,09,44,22.80
2015,08,19,09,45,22.90
2015,08,19,09,46,23.00
2015,08,19,09,47,23.00
2015,08,19,09,48,23.10
2015,08,19,09,49,23.20
2015,08,19,09,50,23.30
2015,08,19,09,51,23.40
2015,08,19,09,52,23.50
2015,08,19,09,53,23.60
2015,08,19,09,54,23.60
2015,08,19,09,55,23.70
2015,08,19,09,56,23.80
2015,08,19,09,57,23.80
2015,08,19,09,58,23.90
2015,08,19,09,59,23.90
2015,08,19,10,00,24.00
2015,08,19,10,01,24.10
2015,08,19,10,02,24.10
2015,08,19,10,03,24.20
2015,08,19,10,04,24.30
2015,08,19,10,05,24.30
2015,08,19,10,06,24.30
2015,08,19,10,07,24.40
2015,08,19,10,08,24.50
2015,08,19,10,09,24.50
2015,08,19,10,10,24.60
2015,08,19,10,11,24.60
2015,08,19,10,12,24.70
2015,08,19,10,13,24.70
2015,08,19,10,14,24.80
2015,08,19,10,15,24.90
2015,08,19,10,16,24.90
2015,08,19,10,17,25.00
2015,08,19,10,18,25.00
2015,08,19,10,19,25.10
2015,08,19,10,20,25.10
2015,08,19,10,21,25.20
2015,08,19,10,22,25.20
2015,08,19,10,23,25.30
2015,08,19,10,24,25.30
2015,08,19,10,25,25.40
2015,08,19,10,26,25.40
2015,08,19,10,27,25.40
2015,08,19,10,28,25.50
2015,08,19,10,29,25.50
2015,08,19,10,30,25.60
2015,08,19,10,31,25.60
2015,08,19,10,32,25.60
2015,08,19,10,33,25.60
2015,08,19,10,34,25.70
2015,08,19,10,35,25.70
2015,08,19,10,36,25.70
2015,08,19,10,37,25.70
2015,08,19,10,38,25.70
2015,08,19,10,39,25.80
2015,08,19,10,40,25.80
2015,08,19,10,41,25.80
2015,08,19,10,42,25.80
2015,08,19,10,43,25.90
2015,08,19,10,44,25.90
2015,08,19,10,45,25.90
2015,08,19,10,46,25.90
2015,08,19,10,47,25.90
2015,08,19,10,48,25.90
2015,08,19,10,49,25.90
2015,08,19,10,50,25.90
2015,08,19,10,51,25.90
2015,08,19,10,52,25.90
2015,08,19,10,53,25.90
2015,08,19,10,54,25.90
2015,08,19,10,55,25.90
2015,08,19,10,56,25.90
2015,08,19,10,57,25.90
2015,08,19,10,58,25.90
2015,08,19,10,59,25.90
2015,08,19,11,00,25.90
2015,08,19,11,01,25.90
2015,08,19,11,02,25.90
2015,08,19,11,03,25.90
2015,08,19,11,04,25.90
2015,08,19,11,05,25.90
2015,08,19,11,06,25.90
2015,08,19,11,07,25.90
2015,08,19,11,08,25.90
2015,08,19,11,09,25.90
2015,08,19,11,10,25.90
2015,08,19,11,11,25.90
2015,08,19,11,12,26.00
2015,08,19,11,13,26.10
2015,08,19,11,14,26.10
2015,08,19,11,15,26.10
2015,08,19,11,16,26.20
2015,08,19,11,17,26.20
2015,08,19,11,18,26.20
2015,08,19,11,19,26.30
2015,08,19,11,20,26.30
2015,08,19,11,21,26.30
2015,08,19,11,22,26.30
2015,08,19,11,23,26.20
2015,08,19,11,24,26.20
2015,08,19,11,25,26.20
2015,08,19,11,26,26.20
2015,08,19,11,27,26.20
2015,08,19,11,28,26.20
2015,08,19,11,29,26.20
2015,08,19,11,30,26.20
2015,08,19,11,31,26.20
2015,08,19,11,32,26.20
2015,08,19,11,33,26.20
2015,08,19,11,34,26.20
2015,08,19,11,35,26.30
2015,08,19,11,36,26.30
2015,08,19,11,37,26.30
2015,08,19,11,38,26.30
2015,08,19,11,39,26.30
2015,08,19,11,40,26.30
2015,08,19,11,41,26.30
2015,08,19,11,42,26.30
2015,08,19,11,43,26.30
2015,08,19,11,44,26.40
2015,08,19,11,45,26.40
2015,08,19,11,46,26.40
2015,08,19,11,47,26.40
2015,08,19,11,48,26.40
2015,08,19,11,49,26.40
2015,08,19,11,50,26.40
2015,08,19,11,51,26.40
2015,08,19,11,52,26.40
2015,08,19,11,53,26.50
2015,08,19,11,54,26.50
2015,08,19,11,55,26.50
2015,08,19,11,56,26.60
2015,08,19,11,57,26.60
2015,08,19,11,58,26.60
2015,08,19,11,59,26.70
2015,08,19,12,00,26.70
2015,08,19,12,01,26.70
2015,08,19,12,02,26.80
2015,08,19,12,03,26.80
2015,08,19,12,04,26.90
2015,08,19,12,05,26.90
2015,08,19,12,06,26.90
2015,08,19,12,07,27.00
2015,08,19,12,08,27.00
2015,08,19,12,09,26.90
2015,08,19,12,10,26.90
2015,08,19,12,11,26.90
2015,08,19,12,12,26.90
2015,08,19,12,13,26.90
2015,08,19,12,14,27.00
2015,08,19,12,15,27.00
2015,08,19,12,16,27.10
2015,08,19,12,17,27.10
2015,08,19,12,18,27.10
2015,08,19,12,19,27.20
2015,08,19,12,20,27.30
2015,08,19,12,21,27.30
2015,08,19,12,22,27.30
2015,08,19,12,23,27.30
2015,08,19,12,24,27.30
2015,08,19,12,25,27.30
2015,08,19,12,26,27.40
2015,08,19,12,27,27.40
2015,08,19,12,28,27.40
2015,08,19,12,29,27.50
2015,08,19,12,30,27.50
2015,08,19,12,31,27.60
2015,08,19,12,32,27.60
2015,08,19,12,33,27.60
2015,08,19,12,34,27.70
2015,08,19,12,35,27.70
2015,08,19,12,36,27.70
2015,08,19,12,37,27.80
2015,08,19,12,38,27.80
2015,08,19,12,39,27.80
2015,08,19,12,40,27.70
2015,08,19,12,41,27.70
2015,08,19,12,42,27.70
2015,08,19,12,43,27.60
2015,08,19,12,44,27.60
2015,08,19,12,45,27.60
2015,08,19,12,46,27.70
2015,08,19,12,47,27.70
2015,08,19,12,48,27.70
2015,08,19,12,49,27.70
2015,08,19,12,50,27.70
2015,08,19,12,51,27.70
2015,08,19,12,52,27.60
2015,08,19,12,53,27.60
2015,08,19,12,54,27.60
2015,08,19,12,55,27.60
2015,08,19,12,56,27.60
2015,08,19,12,57,27.60
2015,08,19,12,58,27.60
2015,08,19,12,59,27.60
2015,08,19,13,00,27.50
2015,08,19,13,01,27.50
2015,08,19,13,02,27.40
2015,08,19,13,03,27.40
2015,08,19,13,04,27.50
2015,08,19,13,05,27.50
2015,08,19,13,06,27.50
2015,08,19,13,07,27.50
2015,08,19,13,08,27.50
2015,08,19,13,09,27.50
2015,08,19,13,10,27.40
2015,08,19,13,11,27.40
2015,08,19,13,12,27.40
2015,08,19,13,13,27.40
2015,08,19,13,14,27.40
2015,08,19,13,15,27.30
2015,08,19,13,16,27.20
2015,08,19,13,17,27.20
2015,08,19,13,18,27.10
2015,08,19,13,19,27.00
2015,08,19,13,20,27.00
2015,08,19,13,21,27.00
2015,08,19,13,22,26.90
2015,08,19,13,23,26.90
2015,08,19,13,24,26.90
2015,08,19,13,25,26.90
2015,08,19,13,26,26.90
2015,08,19,13,27,26.90
2015,08,19,13,28,26.90
2015,08,19,13,29,26.90
2015,08,19,13,30,26.90
2015,08,19,13,31,26.90
2015,08,19,13,32,26.90
2015,08,19,13,33,26.90
2015,08,19,13,34,26.90
2015,08,19,13,35,27.00
2015,08,19,13,36,27.00
2015,08,19,13,37,27.10
2015,08,19,13,38,27.10
2015,08,19,13,39,27.10
2015,08,19,13,40,27.00
2015,08,19,13,41,27.00
2015,08,19,13,42,27.00
2015,08,19,13,43,27.10
2015,08,19,13,44,27.10
2015,08,19,13,45,27.10
2015,08,19,13,46,27.20
2015,08,19,13,47,27.20
2015,08,19,13,48,27.20
2015,08,19,13,49,27.20
2015,08,19,13,50,27.20
2015,08,19,13,51,27.20
2015,08,19,13,52,27.20
2015,08,19,13,53,27.20
2015,08,19,13,54,27.20
2015,08,19,13,55,27.20
2015,08,19,13,56,27.20
2015,08,19,13,57,27.20
2015,08,19,13,58,27.20
2015,08,19,13,59,27.20
2015,08,19,14,00,27.20
2015,08,19,14,01,27.20
2015,08,19,14,02,27.20
2015,08,19,14,03,27.20
2015,08,19,14,04,27.10
2015,08,19,14,05,27.20
2015,08,19,14,06,27.20
2015,08,19,14,07,27.20
2015,08,19,14,08,27.20
2015,08,19,14,09,27.20
2015,08,19,14,10,27.20
2015,08,19,14,11,27.20
2015,08,19,14,12,27.20
2015,08,19,14,13,27.30
2015,08,19,14,14,27.30
2015,08,19,14,15,27.30
2015,08,19,14,16,27.30
2015,08,19,14,17,27.40
2015,08,19,14,18,27.40
2015,08,19,14,19,27.40
2015,08,19,14,20,27.40
2015,08,19,14,21,27.40
2015,08,19,14,22,27.40
2015,08,19,14,23,27.40
2015,08,19,14,24,27.40
2015,08,19,14,25,27.40
2015,08,19,14,26,27.40
2015,08,19,14,27,27.50
2015,08,19,14,28,27.50
2015,08,19,14,29,27.50
2015,08,19,14,30,27.60
2015,08,19,14,31,27.60
2015,08,19,14,32,27.60
2015,08,19,14,33,27.60
2015,08,19,14,34,27.60
2015,08,19,14,35,27.60
2015,08,19,14,36,27.60
2015,08,19,14,37,27.60
2015,08,19,14,38,27.70
2015,08,19,14,39,27.60
2015,08,19,14,40,27.60
2015,08,19,14,41,27.60
2015,08,19,14,42,27.60
2015,08,19,14,43,27.60
2015,08,19,14,44,27.60
2015,08,19,14,45,27.60
2015,08,19,14,46,27.60
2015,08,19,14,47,27.70
2015,08,19,14,48,27.70
2015,08,19,14,49,27.70
2015,08,19,14,50,27.70
2015,08,19,14,51,27.60
2015,08,19,14,52,27.60
2015,08,19,14,53,27.60
2015,08,19,14,54,27.60
2015,08,19,14,55,27.60
2015,08,19,14,56,27.60
2015,08,19,14,57,27.60
2015,08,19,14,58,27.60
2015,08,19,14,59,27.60
2015,08,19,15,00,27.60
2015,08,19,15,01,27.60
2015,08,19,15,02,27.70
2015,08,19,15,03,27.70
2015,08,19,15,04,27.70
2015,08,19,15,05,27.60
2015,08,19,15,06,27.60
2015,08,19,15,07,27.60
2015,08,19,15,08,27.60
2015,08,19,15,09,27.60
2015,08,19,15,10,27.60
2015,08,19,15,11,27.70
2015,08,19,15,12,27.70
2015,08,19,15,13,27.70
2015,08,19,15,14,27.70
2015,08,19,15,15,27.60
2015,08,19,15,16,27.60
2015,08,19,15,17,27.60
2015,08,19,15,18,27.60
2015,08,19,15,19,27.50
2015,08,19,15,20,27.50
2015,08,19,15,21,27.40
2015,08,19,15,22,27.40
2015,08,19,15,23,27.30
2015,08,19,15,24,27.30
2015,08,19,15,25,27.20
2015,08,19,15,26,27.10
2015,08,19,15,27,27.10
2015,08,19,15,28,27.10
2015,08,19,15,29,27.10
2015,08,19,15,30,27.10
2015,08,19,15,31,27.10
2015,08,19,15,32,27.10
2015,08,19,15,33,27.20
2015,08,19,15,34,27.20
2015,08,19,15,35,27.20
2015,08,19,15,36,27.20
2015,08,19,15,37,27.20
2015,08,19,15,38,27.30
2015,08,19,15,39,27.30
2015,08,19,15,40,27.40
2015,08,19,15,41,27.40
2015,08,19,15,42,27.40
2015,08,19,15,43,27.40
2015,08,19,15,44,27.40
2015,08,19,15,45,27.30
2015,08,19,15,46,27.30
2015,08,19,15,47,27.30
2015,08,19,15,48,27.30
2015,08,19,15,49,27.30
2015,08,19,15,50,27.30
2015,08,19,15,51,27.30
2015,08,19,15,52,27.30
2015,08,19,15,53,27.30
2015,08,19,15,54,27.20
2015,08,19,15,55,27.20
2015,08,19,15,56,27.20
2015,08,19,15,57,27.10
2015,08,19,15,58,27.10
2015,08,19,15,59,27.00
2015,08,19,16,00,26.90
2015,08,19,16,01,26.90
2015,08,19,16,02,26.90
2015,08,19,16,03,26.90
2015,08,19,16,04,26.90
2015,08,19,16,05,26.90
2015,08,19,16,06,26.90
2015,08,19,16,07,26.90
2015,08,19,16,08,27.00
2015,08,19,16,09,26.90
2015,08,19,16,10,26.90
2015,08,19,16,11,26.90
2015,08,19,16,12,27.00
2015,08,19,16,13,27.00
2015,08,19,16,14,27.00
2015,08,19,16,15,27.10
2015,08,19,16,16,27.00
2015,08,19,16,17,26.90
2015,08,19,16,18,26.90
2015,08,19,16,19,26.90
2015,08,19,16,20,26.80
2015,08,19,16,21,26.80
2015,08,19,16,22,26.80
2015,08,19,16,23,26.80
2015,08,19,16,24,26.80
2015,08,19,16,25,26.70
2015,08,19,16,26,26.70
2015,08,19,16,27,26.70
2015,08,19,16,28,26.70
2015,08,19,16,29,26.60
2015,08,19,16,30,26.60
2015,08,19,16,31,26.60
2015,08,19,16,32,26.60
2015,08,19,16,33,26.60
2015,08,19,16,34,26.60
2015,08,19,16,35,26.60
2015,08,19,16,36,26.50
2015,08,19,16,37,26.60
2015,08,19,16,38,26.60
2015,08,19,16,39,26.60
2015,08,19,16,40,26.70
2015,08,19,16,41,26.70
2015,08,19,16,42,26.80
2015,08,19,16,43,26.80
2015,08,19,16,44,26.80
2015,08,19,16,45,26.80
2015,08,19,16,46,26.80
2015,08,19,16,47,26.80
2015,08,19,16,48,26.90
2015,08,19,16,49,26.90
2015,08,19,16,50,26.80
2015,08,19,16,51,26.80
2015,08,19,16,52,26.80
2015,08,19,16,53,26.80
2015,08,19,16,54,26.70
2015,08,19,16,55,26.70
2015,08,19,16,56,26.60
2015,08,19,16,57,26.60
2015,08,19,16,58,26.50
2015,08,19,16,59,26.40
2015,08,19,17,00,26.40
2015,08,19,17,01,26.30
2015,08,19,17,02,26.30
2015,08,19,17,03,26.30
2015,08,19,17,04,26.30
2015,08,19,17,05,26.30
2015,08,19,17,06,26.30
2015,08,19,17,07,26.20
2015,08,19,17,08,26.20
2015,08,19,17,09,26.20
2015,08,19,17,10,26.20
2015,08,19,17,11,26.20
2015,08,19,17,12,26.20
2015,08,19,17,13,26.20
2015,08,19,17,14,26.20
2015,08,19,17,15,26.20
2015,08,19,17,16,26.20
2015,08,19,17,17,26.20
2015,08,19,17,18,26.20
2015,08,19,17,19,26.20
2015,08,19,17,20,26.20
2015,08,19,17,21,26.20
2015,08,19,17,22,26.20